Wind_Speed
33 33 30 32 33 36 34 32 34 31 30 24 21 21 25 36 51 58 61 62 75 92 105 110 109 108 108 105 106 106 101 95 87 87 88 88 87 86 86 78 78 73 71 68 60
34 35 34 31 33 35 33 31 32 30 32 32 27 24 26 29 37 47 62 63 63 68 84 96 109 113 109 110 108 108 105 99 98 98 93 92 89 92 90 80 86 82 76 75 67
37 34 37 38 34 34 34 35 32 31 30 34 35 30 24 27 32 42 47 62 67 67 68 72 86 99 108 111 113 111 107 106 103 103 103 102 94 91 87 87 87 88 86 83 78
38 40 42 41 40 36 37 37 39 37 34 35 36 35 34 31 24 38 42 48 58 71 72 70 73 76 78 88 100 109 108 112 112 109 108 104 102 102 100 94 94 92 90 88 82
43 42 41 44 42 42 36 40 39 36 38 39 39 36 37 40 36 33 36 44 51 58 75 75 73 74 75 79 81 84 92 104 110 112 110 106 103 102 104 103 100 101 95 95 88
51 47 44 50 49 44 41 40 41 40 37 41 43 42 41 44 42 43 40 39 42 53 59 76 79 78 76 76 77 78 80 84 92 98 104 103 103 103 102 106 103 105 101 98 93
52 52 50 50 50 44 47 41 38 39 35 35 39 42 44 54 52 50 49 46 46 44 54 62 78 81 81 78 77 76 78 79 78 83 89 96 100 100 101 107 107 105 108 106 100
53 54 55 53 51 50 53 53 50 48 42 39 45 46 49 51 51 55 52 53 49 48 46 55 63 78 83 83 81 76 74 74 78 81 82 87 83 91 95 98 99 100 99 106 102
55 58 59 62 57 54 61 59 55 48 47 50 52 52 52 54 49 54 58 57 54 52 52 48 57 65 77 83 84 81 78 75 77 79 82 81 79 83 88 91 93 97 99 101 104
66 64 65 67 64 60 62 63 63 58 55 58 57 56 59 58 60 55 62 65 62 58 57 52 52 60 67 71 79 84 83 82 79 80 78 76 77 81 83 84 86 89 91 94 95
72 74 74 79 75 75 75 78 75 73 72 73 68 63 69 68 64 63 63 66 67 62 57 59 54 53 62 66 70 83 87 84 83 85 81 75 75 76 79 82 83 83 83 83 84
77 76 79 84 84 84 84 80 84 87 77 69 76 75 78 76 73 67 67 65 67 67 63 60 52 56 66 67 67 67 76 84 86 85 83 81 79 80 80 78 79 80 80 80 79
84 82 84 88 90 91 94 90 93 97 93 84 87 85 85 88 80 79 71 67 67 69 66 61 59 63 65 64 61 62 62 66 81 86 83 84 81 83 84 80 78 77 75 76 77
88 89 92 91 94 96 97 101 105 107 104 93 96 89 90 89 83 78 65 66 66 66 67 64 67 65 62 63 63 60 61 60 65 79 83 84 80 82 84 84 83 81 77 75 71
94 99 100 101 102 110 112 115 111 109 105 103 105 90 91 91 76 65 66 61 63 64 68 62 65 66 60 58 62 56 56 60 63 67 77 83 80 80 84 83 79 81 79 77 74
103 106 107 110 118 117 118 118 109 106 109 104 106 95 91 62 54 58 58 52 64 63 65 64 68 65 60 61 61 61 55 55 59 61 62 70 79 81 83 81 82 81 76 71 70
111 113 119 121 125 127 121 116 108 111 111 104 88 76 63 47 45 45 51 50 56 56 54 62 65 66 63 59 59 57 61 55 58 53 47 60 74 73 75 80 81 75 75 75 72
116 121 126 126 130 128 122 114 105 101 101 83 63 51 40 37 41 45 47 49 51 49 58 62 64 66 62 59 57 57 59 59 53 54 53 55 57 72 73 73 75 71 72 72 72
121 128 131 134 132 119 115 111 97 77 67 57 46 40 39 35 39 45 41 37 42 47 49 53 54 63 64 60 58 58 57 61 58 58 54 48 51 59 64 71 74 73 68 66 70
130 129 135 130 127 117 97 76 66 58 51 44 36 39 38 38 39 33 46 31 36 41 49 50 57 62 61 62 58 54 54 54 52 53 48 47 50 45 59 60 61 59 62 62 59
134 136 133 127 116 87 73 62 55 51 41 37 33 33 36 37 44 43 56 42 29 45 49 51 56 58 61 58 52 47 48 46 41 43 41 43 47 42 49 58 60 56 53 54 58
136 138 128 113 91 72 60 52 46 44 37 34 28 30 32 32 43 48 55 47 42 44 47 53 54 58 55 54 54 51 47 45 41 40 41 42 44 41 49 55 48 50 55 55 54
135 125 125 98 79 63 51 46 41 38 30 29 28 30 30 32 43 48 54 49 58 53 47 59 55 58 52 47 50 51 44 44 46 45 40 39 42 40 49 45 38 30 28 36 55
131 120 96 81 66 57 49 41 34 31 26 25 25 24 28 33 40 46 52 48 47 48 53 53 54 49 43 46 47 46 46 48 46 39 41 39 44 47 51 49 42 38 35 50 53
130 105 84 67 58 50 41 33 26 21 21 21 21 25 31 36 37 46 50 51 50 48 53 51 48 45 46 44 42 44 47 43 44 42 39 44 48 48 52 55 54 56 61 53 55
110 91 73 61 50 41 33 25 20 17 19 19 26 33 38 34 39 44 53 54 52 53 33 45 53 47 39 24 36 43 46 43 45 42 42 46 48 47 52 57 57 61 64 57 57
100 80 65 54 42 33 26 21 17 16 19 21 27 27 29 33 40 52 60 59 53 58 44 41 46 48 46 47 52 41 43 44 47 44 46 52 48 46 48 50 52 61 57 54 56
Wind_Direction
349 344 340 340 337 345 340 339 336 335 343 339 308 287 269 250 245 239 238 238 238 240 239 241 242 243 242 244 243 243 244 245 245 247 246 244 244 247 252 253 253 249 251 248 246
341 339 336 331 335 329 330 331 329 326 331 336 341 318 284 269 253 248 243 239 239 237 240 242 241 243 243 243 244 247 247 245 247 245 244 244 244 245 251 253 254 255 253 249 245
339 340 337 332 329 321 325 324 323 319 315 321 326 327 319 288 273 263 245 246 242 238 238 237 241 244 243 242 243 243 245 246 247 248 247 246 247 249 249 246 247 252 252 252 252
333 330 326 325 322 327 321 322 322 314 309 310 313 313 314 304 308 277 261 248 247 243 239 237 238 237 235 238 240 241 241 243 245 247 247 248 250 249 247 247 246 248 252 254 254
332 325 324 324 320 316 315 319 314 310 304 305 301 300 298 299 302 288 279 266 252 247 242 239 238 237 237 235 235 235 238 240 242 244 245 246 246 246 249 248 247 248 249 251 253
332 329 323 322 320 317 312 316 314 307 301 300 299 296 292 287 290 294 290 280 269 255 247 241 239 237 236 237 237 235 234 235 237 239 241 241 241 244 245 247 248 250 249 249 249
326 325 319 318 316 306 305 309 310 310 303 294 306 305 298 290 285 285 287 285 273 267 256 248 239 239 238 237 236 236 235 235 237 237 238 238 239 242 241 244 246 247 248 248 247
323 322 322 317 311 307 304 302 298 303 306 307 304 307 305 305 297 281 279 280 276 269 265 254 249 239 237 238 237 237 237 237 237 237 238 238 237 240 241 242 241 243 244 249 248
319 319 319 318 310 303 300 301 300 297 298 301 304 303 302 295 292 283 275 274 272 270 266 264 253 249 239 236 239 238 236 236 237 238 237 239 238 240 241 242 243 243 243 244 247
323 316 316 315 311 301 299 297 296 289 291 295 296 296 292 290 289 283 272 268 268 271 263 261 258 248 247 241 237 236 238 236 236 239 238 238 238 240 242 243 243 243 243 244 244
319 317 314 312 308 305 298 297 294 293 291 292 289 291 290 282 281 279 276 264 263 267 260 255 254 252 248 245 240 236 235 236 237 238 238 237 238 240 240 241 243 243 243 244 245
315 316 316 314 313 308 303 298 294 298 295 287 286 288 288 284 285 282 276 266 257 258 257 254 254 248 245 244 244 240 238 237 238 238 240 239 240 239 242 241 243 244 244 245 244
315 315 314 312 311 306 302 301 298 300 303 292 288 290 286 286 288 285 277 265 253 253 257 251 247 247 242 247 247 247 241 241 240 238 239 240 239 242 244 243 243 243 244 243 244
317 317 314 311 308 308 302 303 300 303 306 298 292 290 291 292 290 278 271 259 251 249 250 249 245 246 245 241 245 246 243 239 240 239 237 240 241 243 244 245 246 246 244 245 245
318 317 318 315 310 306 306 308 305 303 308 299 299 297 288 295 283 274 266 253 250 246 247 245 243 244 243 241 241 238 247 242 240 240 237 237 239 242 246 245 246 248 248 247 247
318 318 316 317 312 312 311 311 308 306 304 302 297 298 295 286 273 265 260 246 244 243 244 242 239 243 240 241 239 234 242 248 246 241 241 240 241 242 245 246 247 248 249 250 250
317 317 316 316 314 315 312 311 308 301 301 303 298 295 287 276 267 255 252 240 240 240 242 242 238 240 237 243 239 238 237 242 250 252 246 243 240 242 245 248 246 249 252 253 253
317 318 316 317 316 315 312 311 306 303 302 298 294 290 276 257 250 246 239 236 234 230 230 231 233 234 234 237 236 236 236 241 242 246 248 244 241 241 241 247 249 248 249 252 253
318 319 318 318 316 314 311 306 306 302 299 296 291 280 262 248 235 245 235 232 229 226 226 228 228 231 229 227 231 235 236 239 241 247 254 253 244 246 243 246 249 246 251 252 254
318 320 321 320 316 314 312 308 305 302 299 293 285 270 255 235 224 224 241 217 239 226 221 219 219 224 223 224 224 234 239 241 245 250 250 248 245 240 241 246 247 247 246 249 248
320 320 324 320 317 316 313 309 304 300 295 286 273 259 250 228 226 226 226 221 228 225 216 213 215 218 218 220 222 230 236 244 239 244 247 243 247 239 238 247 243 248 245 251 251
322 323 325 323 318 318 314 308 304 298 289 282 266 253 240 227 220 220 223 215 198 225 211 209 204 210 212 214 220 224 228 233 233 237 240 243 244 242 238 242 251 251 248 246 246
324 324 323 321 319 316 314 305 300 292 283 268 253 239 222 207 205 217 213 211 200 206 200 209 206 208 210 212 222 230 229 232 234 239 247 244 237 236 234 245 246 249 247 251 245
328 328 325 321 317 314 312 304 297 286 272 252 235 221 209 199 196 203 216 201 195 197 201 207 201 203 207 212 215 218 221 227 236 243 242 239 237 233 229 234 231 213 235 235 251
328 328 326 322 317 314 309 303 292 277 255 241 216 204 201 196 199 196 188 185 189 193 199 193 194 205 212 212 220 222 225 231 234 237 238 238 234 234 233 235 235 234 239 250 248
329 328 326 322 319 315 309 301 285 259 237 217 202 197 204 204 193 192 180 187 180 182 187 200 202 201 210 209 235 228 222 225 235 243 236 231 238 239 237 238 242 240 240 242 249
329 327 326 324 322 317 307 293 275 245 227 211 208 208 194 194 190 177 181 179 178 184 183 192 203 206 210 209 221 233 230 224 233 238 238 241 242 243 241 238 241 239 247 243 247
Height
10805 10800 10795 10791 10785 10782 10778 10773 10769 10766 10762 10760 10757 10755 10755 10754 10754 10753 10756 10760 10760 10761 10771 10777 10783 10789 10796 10805 10811 10813 10828 10847 10852 10852 10856 10857 10861 10864 10872 10888 10887 10902 10908 10910 10928
10800 10794 10789 10784 10780 10774 10769 10766 10762 10759 10756 10753 10752 10750 10746 10744 10745 10743 10744 10743 10746 10750 10754 10760 10765 10772 10782 10786 10792 10798 10813 10828 10824 10830 10837 10837 10844 10848 10862 10878 10873 10888 10896 10893 10915
10793 10789 10783 10777 10773 10768 10762 10757 10753 10750 10748 10744 10742 10741 10739 10737 10736 10729 10733 10734 10733 10736 10739 10743 10745 10752 10759 10765 10773 10782 10801 10799 10806 10810 10817 10825 10834 10840 10855 10859 10862 10872 10876 10880 10891
10788 10782 10776 10771 10765 10761 10757 10752 10747 10742 10738 10735 10732 10730 10728 10726 10729 10718 10720 10720 10722 10723 10723 10727 10732 10737 10741 10746 10748 10760 10772 10780 10786 10789 10801 10816 10816 10824 10833 10842 10844 10854 10865 10866 10878
10782 10775 10768 10762 10757 10751 10747 10743 10737 10734 10730 10726 10723 10720 10718 10715 10714 10714 10711 10709 10708 10709 10712 10713 10718 10721 10727 10728 10731 10744 10749 10758 10766 10773 10786 10794 10795 10802 10815 10821 10826 10837 10851 10853 10864
10772 10766 10760 10754 10748 10742 10737 10734 10730 10725 10720 10717 10714 10711 10708 10702 10703 10702 10699 10698 10696 10695 10695 10700 10701 10704 10709 10714 10720 10725 10730 10738 10745 10755 10764 10776 10775 10782 10796 10803 10813 10818 10831 10838 10848
10764 10757 10751 10745 10739 10733 10729 10725 10719 10714 10711 10708 10704 10701 10699 10690 10690 10687 10686 10685 10682 10680 10681 10682 10685 10689 10692 10698 10703 10709 10716 10721 10735 10736 10744 10751 10758 10772 10774 10782 10797 10801 10806 10813 10831
10753 10747 10740 10734 10729 10722 10716 10712 10708 10701 10696 10693 10690 10688 10684 10678 10676 10672 10672 10669 10669 10666 10665 10666 10668 10673 10677 10680 10687 10696 10702 10712 10716 10721 10728 10729 10752 10750 10755 10762 10775 10781 10789 10793 10810
10744 10736 10729 10721 10714 10708 10701 10697 10693 10687 10682 10677 10673 10669 10669 10662 10659 10656 10655 10652 10653 10651 10650 10651 10652 10656 10659 10667 10673 10682 10691 10699 10698 10705 10708 10719 10733 10732 10734 10742 10754 10763 10770 10779 10785
10730 10722 10715 10707 10699 10693 10683 10680 10675 10671 10666 10659 10653 10650 10646 10643 10639 10637 10634 10633 10634 10635 10636 10636 10635 10638 10645 10651 10662 10663 10669 10677 10684 10687 10695 10708 10717 10716 10720 10727 10735 10744 10752 10760 10772
10716 10708 10699 10690 10684 10676 10668 10660 10655 10651 10651 10642 10632 10631 10621 10619 10618 10616 10613 10612 10614 10617 10619 10616 10621 10629 10629 10632 10633 10641 10652 10660 10669 10671 10681 10694 10699 10701 10705 10711 10718 10726 10736 10744 10757
10704 10695 10685 10673 10664 10655 10644 10638 10630 10622 10633 10627 10612 10611 10594 10591 10596 10595 10590 10590 10592 10596 10596 10603 10614 10610 10608 10614 10622 10629 10636 10647 10651 10656 10668 10678 10684 10686 10689 10698 10702 10710 10720 10729 10739
10687 10677 10666 10651 10639 10631 10618 10612 10601 10590 10595 10599 10582 10583 10570 10564 10570 10569 10564 10564 10568 10572 10580 10586 10592 10588 10595 10603 10611 10615 10623 10628 10632 10640 10651 10658 10670 10671 10673 10682 10690 10696 10706 10715 10722
10666 10657 10646 10637 10614 10606 10590 10584 10573 10557 10557 10570 10550 10555 10546 10537 10544 10528 10540 10535 10542 10553 10557 10566 10569 10574 10582 10591 10596 10602 10605 10610 10615 10621 10635 10640 10651 10656 10660 10669 10676 10682 10692 10699 10709
10644 10633 10623 10604 10599 10572 10563 10550 10542 10531 10522 10522 10503 10517 10512 10510 10502 10505 10502 10515 10520 10529 10534 10554 10553 10558 10569 10577 10580 10590 10590 10596 10600 10608 10616 10628 10638 10641 10645 10653 10663 10665 10676 10686 10695
10620 10606 10598 10584 10561 10556 10533 10519 10512 10502 10495 10491 10469 10476 10479 10474 10476 10474 10477 10495 10489 10505 10517 10528 10535 10543 10555 10559 10567 10573 10578 10584 10588 10596 10609 10618 10621 10628 10625 10639 10643 10653 10663 10672 10679
10594 10579 10562 10554 10537 10515 10506 10493 10483 10472 10455 10460 10441 10440 10446 10445 10450 10454 10458 10470 10474 10487 10505 10510 10522 10528 10538 10545 10554 10561 10566 10575 10580 10590 10602 10599 10603 10612 10622 10621 10629 10645 10651 10656 10668
10573 10556 10538 10521 10506 10483 10466 10455 10447 10436 10427 10422 10414 10418 10423 10426 10429 10431 10441 10448 10457 10470 10477 10488 10499 10514 10527 10534 10542 10548 10555 10564 10571 10577 10582 10583 10596 10594 10607 10609 10618 10634 10635 10640 10648
10552 10532 10510 10492 10467 10454 10438 10425 10412 10400 10395 10397 10396 10397 10398 10406 10412 10411 10426 10437 10442 10453 10465 10475 10491 10497 10507 10519 10525 10536 10546 10553 10558 10561 10575 10580 10581 10583 10594 10600 10603 10616 10620 10631 10629
10526 10509 10485 10461 10436 10413 10405 10390 10384 10375 10375 10377 10379 10378 10383 10388 10396 10402 10407 10428 10431 10442 10448 10462 10471 10481 10495 10503 10513 10526 10530 10540 10550 10555 10563 10568 10567 10578 10579 10588 10591 10601 10608 10615 10622
10493 10469 10453 10425 10401 10384 10374 10363 10358 10353 10356 10357 10360 10364 10368 10376 10379 10386 10396 10413 10421 10428 10438 10448 10459 10471 10480 10496 10508 10516 10521 10532 10539 10546 10552 10557 10558 10567 10571 10569 10584 10593 10600 10604 10605
10466 10437 10411 10396 10373 10364 10355 10344 10342 10337 10339 10339 10346 10350 10355 10368 10371 10378 10385 10403 10414 10422 10433 10441 10453 10461 10476 10488 10496 10505 10512 10522 10532 10537 10541 10546 10552 10560 10561 10564 10577 10579 10584 10590 10593
10442 10409 10386 10366 10351 10343 10338 10330 10326 10323 10325 10327 10330 10333 10339 10351 10362 10366 10378 10391 10402 10411 10427 10431 10449 10454 10469 10485 10491 10502 10508 10517 10523 10528 10535 10539 10547 10549 10550 10561 10564 10570 10579 10572 10581
10407 10390 10364 10349 10334 10325 10320 10315 10313 10310 10312 10314 10319 10325 10330 10338 10349 10362 10371 10384 10396 10407 10417 10432 10446 10460 10470 10475 10481 10490 10500 10506 10514 10523 10525 10532 10534 10539 10544 10549 10558 10564 10559 10566 10564
10381 10358 10346 10331 10319 10311 10304 10300 10300 10300 10302 10306 10311 10318 10326 10334 10342 10352 10365 10379 10391 10406 10417 10433 10446 10456 10458 10472 10479 10486 10492 10501 10506 10513 10520 10520 10523 10525 10533 10539 10546 10552 10552 10554 10555
10356 10341 10324 10314 10305 10297 10292 10290 10289 10291 10293 10300 10304 10311 10317 10326 10337 10348 10363 10377 10389 10406 10422 10429 10439 10448 10459 10472 10470 10476 10485 10494 10497 10505 10512 10513 10513 10520 10525 10528 10532 10538 10538 10544 10543
10334 10322 10310 10300 10292 10286 10282 10281 10282 10284 10287 10292 10297 10305 10317 10327 10337 10347 10360 10373 10386 10398 10408 10423 10434 10446 10456 10467 10465 10468 10476 10486 10488 10496 10499 10497 10507 10513 10516 10522 10521 10517 10527 10536 10539